Location: Asheville, NC
(35.6000°N, 82.5500°W)
Time: 19:40:18
(UTC-04:00)

BEESAT 3 - Pass Details

Date: 11 March 2018
Orbit: 500 x 517 km, 64.9° (Epoch: 23 June)

Event Time Altitude Azimuth Distance (km) Brightness Sun altitude
Exits shadow 06:57:56 - 316° (NW) 2,164 ? -10.7°
Reaches altitude 10° 06:59:04 10° 310° (NW) 1,737 ? -10.5°
Maximum altitude 07:02:33 32° 247° (WSW) 892 ? -9.8°
Drops below altitude 10° 07:06:00 10° 183° (S) 1,716 ? -9.1°
Sets 07:08:17 0° 173° (S) 2,593 ? -8.6°
